Temp
70 70 70 69 69 70 71 72 72 72 72 71 72 72 70 69 65 64 64 67 69 72 75 72 74 75 75 75 76 76 76 77 77 78 78 78 78 75 72 72 72 72 72 72 71 71 72 71 71 72 73 73 73 74 74 74 75 75 75 75 76 76 76 76 76 76 76 76 76 76 77 77 78 79
69 69 69 69 69 70 70 71 72 72 71 71 71 71 72 70 66 67 64 66 71 71 72 75 74 73 74 75 75 75 76 76 77 78 77 78 78 73 72 72 72 72 71 71 70 71 70 71 71 71 71 71 72 73 73 73 73 73 74 74 75 75 75 75 75 75 75 75 76 75 76 76 76 77
69 68 68 69 68 70 70 70 71 72 71 71 71 71 71 70 69 67 67 64 70 74 72 73 76 75 74 75 75 75 76 76 76 77 77 77 75 73 73 71 71 71 70 70 69 69 68 69 70 69 69 70 71 71 72 72 72 72 73 73 73 73 73 74 74 74 75 75 75 75 75 75 75 75
69 68 68 68 68 69 69 69 70 70 71 71 71 71 71 70 70 68 67 65 67 73 74 74 74 75 75 74 74 74 75 76 75 77 76 77 75 76 76 73 70 69 69 69 69 68 68 68 69 69 69 70 70 71 71 70 71 71 71 71 72 72 72 72 72 73 74 74 74 74 74 74 74 74
70 69 68 69 69 70 68 68 69 70 70 70 70 71 70 69 70 68 66 65 66 71 74 74 74 74 73 73 74 74 75 75 76 75 77 77 76 76 76 77 73 70 68 68 68 68 68 68 68 68 69 69 70 71 71 70 70 70 69 70 70 70 71 71 70 72 72 73 73 73 73 73 73 73
69 69 67 68 69 70 69 68 68 69 69 69 69 69 69 68 69 70 67 67 67 67 72 72 74 73 73 74 74 75 75 75 76 75 75 76 76 76 76 76 77 71 69 67 66 66 67 67 67 67 68 68 68 69 69 69 68 68 68 68 68 68 68 68 69 70 71 71 72 72 72 72 72 72
69 69 68 69 69 69 68 68 68 69 69 69 68 68 69 68 69 70 70 68 67 67 70 73 72 72 72 73 74 75 76 77 77 75 75 75 76 76 76 76 77 72 69 67 67 66 66 67 67 67 67 67 66 66 66 66 67 67 67 67 67 67 67 67 68 69 70 71 71 72 72 71 71 72
68 67 67 68 69 69 67 68 67 68 69 68 68 68 69 69 69 70 70 70 68 68 68 71 71 72 71 72 74 75 75 75 74 75 76 75 75 75 75 75 76 73 69 68 67 67 66 66 66 66 66 66 65 65 65 65 65 65 65 65 65 66 66 65 66 68 68 69 70 71 71 71 71 70
68 67 67 68 69 69 68 68 67 68 67 68 68 68 68 68 68 69 70 69 69 68 67 69 72 72 72 73 73 74 73 73 73 73 73 75 74 74 75 75 75 71 68 67 67 66 66 66 66 65 65 65 64 64 63 63 63 63 63 63 64 64 64 64 64 65 66 66 67 67 68 70 70 70
68 68 68 68 68 69 67 68 68 68 68 68 67 67 67 67 68 68 69 69 68 68 68 68 69 71 71 71 71 72 73 73 72 72 72 72 73 73 73 74 75 76 76 75 73 68 67 66 65 65 65 64 63 63 62 62 61 60 60 59 59 61 62 63 64 64 64 64 65 66 67 68 69 69
68 68 68 68 69 69 69 69 69 69 68 68 67 68 67 68 67 67 67 68 67 68 68 68 69 70 71 71 70 71 72 73 73 72 71 71 72 72 72 73 74 75 74 72 70 70 70 68 68 65 63 63 63 63 62 61 59 59 58 57 57 57 58 59 61 62 62 62 63 63 64 66 68 69
69 69 69 69 69 70 70 70 70 70 69 69 68 68 68 67 67 66 67 67 67 67 67 67 68 68 69 69 70 70 70 69 69 71 71 70 71 71 71 72 73 73 72 73 73 69 67 67 65 63 63 63 63 63 63 63 62 60 58 58 59 59 58 58 59 60 60 60 60 61 61 62 65 67
68 69 69 70 71 71 70 65 65 65 65 70 67 68 68 67 66 66 66 67 66 67 66 66 67 67 67 68 68 67 67 67 69 71 70 70 71 72 71 72 72 72 72 72 72 72 72 70 70 69 70 70 67 66 65 66 65 62 59 58 60 60 59 58 58 59 59 59 59 59 60 61 64 66
67 68 69 70 70 70 66 64 61 60 60 62 68 70 69 67 67 66 66 66 66 66 65 65 66 65 66 67 68 68 69 70 71 70 69 68 70 70 69 70 71 72 71 71 70 72 73 71 70 70 70 72 70 70 70 69 68 65 62 60 60 60 60 58 58 58 58 58 58 58 58 60 62 64
65 67 69 69 69 69 70 68 60 60 59 60 60 63 64 65 69 67 65 66 66 66 66 67 67 66 67 68 70 69 70 70 70 70 70 69 70 68 67 67 71 72 72 70 70 71 73 71 70 70 70 71 71 70 70 67 66 63 62 61 61 60 60 60 59 59 58 57 57 57 57 59 61 61
64 66 67 68 69 69 70 71 69 64 59 59 59 60 61 61 62 65 69 67 66 66 66 66 67 67 67 69 69 69 70 69 69 70 70 69 69 68 67 67 68 72 72 71 70 70 73 71 70 70 71 71 71 71 67 65 65 63 62 62 61 61 61 60 61 61 60 59 59 60 59 60 61 61
64 65 66 67 68 69 64 69 70 70 68 60 58 59 59 60 61 63 64 66 70 70 68 67 68 68 69 68 69 71 70 71 69 68 68 68 69 70 68 69 70 71 71 70 69 69 72 71 69 69 71 72 71 70 66 64 64 63 62 61 61 61 61 60 61 61 60 59 59 59 59 59 60 60
65 65 65 65 66 68 68 68 68 68 68 69 66 64 65 66 64 60 62 62 63 68 71 69 68 70 71 69 71 73 72 70 69 68 68 69 68 68 69 71 72 72 72 71 71 69 71 71 70 69 71 72 71 71 67 64 63 63 61 61 60 60 60 60 60 60 60 59 59 58 57 57 58 59
60 61 62 64 66 68 68 69 68 68 68 68 68 66 66 66 67 68 68 69 70 71 73 72 71 71 71 72 73 72 72 72 71 71 71 71 70 71 71 70 69 70 72 73 71 68 71 71 69 70 71 72 71 71 66 63 62 61 60 60 60 59 59 59 60 59 58 58 58 57 56 56 56 56
60 61 61 60 60 62 65 64 61 62 67 68 67 66 65 66 67 68 65 66 68 71 73 73 73 73 74 68 73 72 73 72 72 71 71 71 71 69 67 67 70 69 71 71 70 69 69 71 70 71 72 71 70 69 69 63 61 60 59 60 59 58 57 58 58 58 58 58 57 56 54 53 53 53
60 61 61 58 56 57 59 58 58 61 61 66 66 66 65 65 66 66 68 64 63 64 64 64 66 66 65 63 62 62 64 70 70 71 68 67 69 67 66 67 68 68 71 70 72 71 69 70 70 70 69 69 70 69 68 66 61 59 58 58 58 57 57 57 57 57 58 58 57 57 56 53 52 53
58 60 62 60 57 55 56 54 54 57 60 65 66 67 66 65 65 65 68 68 66 62 62 63 63 63 64 63 63 62 62 63 66 71 68 70 69 68 68 67 67 69 70 70 72 69 69 70 69 68 67 67 68 68 68 66 63 60 58 57 57 56 56 56 55 57 57 57 57 56 55 52 52 57
58 59 59 59 56 55 54 52 53 53 59 66 66 67 66 65 65 66 67 67 66 65 66 66 66 66 64 66 68 67 60 62 67 74 74 72 70 68 68 69 68 66 68 72 73 69 68 69 68 69 66 66 68 68 67 65 65 65 65 63 61 56 57 55 54 54 54 56 56 56 54 52 53 60
58 58 58 58 54 53 52 51 51 52 53 63 66 65 64 64 64 67 67 68 67 66 66 66 68 69 68 68 68 68 66 66 70 72 74 73 71 71 70 71 70 70 70 71 73 71 71 71 67 70 71 68 66 66 66 66 66 65 66 64 64 58 58 56 54 52 52 53 53 54 53 51 54 62
57 57 58 58 55 52 52 51 50 50 52 55 60 61 63 63 63 64 67 66 66 66 67 67 67 68 68 68 68 68 67 67 69 70 71 73 74 74 72 70 69 70 70 70 69 73 67 68 67 68 68 70 70 67 66 67 65 65 65 66 65 63 63 63 61 61 54 51 51 51 51 51 53 61
58 57 57 58 54 51 51 50 50 50 52 54 59 55 52 54 58 65 66 67 67 66 66 66 66 66 66 66 67 66 67 67 68 70 71 72 73 74 74 72 69 69 70 69 64 69 65 65 68 67 68 67 66 68 65 66 66 65 66 66 67 66 65 65 65 63 62 62 60 55 55 51 53 55
58 58 58 58 55 50 49 49 50 51 53 54 54 51 53 55 57 62 65 66 66 66 66 66 65 65 66 65 65 66 67 68 68 68 70 71 72 72 72 72 73 72 72 69 70 70 69 67 69 69 68 69 67 65 66 67 67 66 65 65 66 66 65 66 65 65 64 62 62 52 51 51 53 55
58 57 57 55 49 48 48 50 51 51 52 55 50 52 55 57 59 63 63 62 64 65 64 64 64 64 65 65 65 66 67 67 68 69 70 71 71 69 70 71 72 72 71 70 70 71 70 68 67 69 70 69 67 65 66 68 68 66 65 66 67 66 65 66 65 66 64 63 62 60 61 60 58 58
58 53 49 48 50 51 51 53 55 56 54 53 54 54 56 60 60 60 60 60 60 60 61 61 62 63 63 64 65 66 66 66 67 67 68 69 69 69 69 69 69 69 71 71 70 70 70 70 68 68 68 69 70 71 71 69 67 66 67 65 64 66 65 65 66 65 65 64 63 61 63 64 62 62
53 52 51 52 54 55 56 60 60 60 60 56 58 59 60 60 59 58 58 58 58 58 59 60 60 60 62 63 64 65 66 65 64 65 66 67 67 68 67 66 65 66 67 68 69 69 70 70 69 68 68 69 70 69 70 68 67 68 66 66 69 68 67 66 65 66 65 63 64 63 64 66 65 63
59 59 58 57 54 54 56 58 58 58 60 60 60 60 60 61 61 60 59 58 57 58 59 59 60 60 61 63 63 62 63 63 63 65 65 66 65 65 65 64 63 64 64 66 68 69 69 69 69 69 67 66 66 68 68 70 69 67 66 67 68 69 69 66 65 65 65 65 65 65 64 64 65 64
59 61 58 58 61 62 61 61 61 60 60 60 60 60 60 60 62 63 64 62 60 59 59 60 60 60 60 60 60 61 61 61 61 63 64 64 64 64 63 63 62 62 62 64 65 66 69 69 68 68 69 67 67 65 65 66 67 68 67 67 66 68 67 66 65 65 66 65 64 63 64 65 65 65
60 62 61 61 61 60 60 60 60 61 61 61 61 62 61 61 61 61 61 60 59 59 59 59 60 59 60 60 60 60 60 60 60 61 62 62 62 63 63 63 62 61 60 61 63 65 68 70 71 70 70 70 70 68 65 63 65 67 67 66 66 67 68 68 68 66 66 65 64 65 64 65 66 66
59 61 61 60 60 60 59 59 59 60 60 60 60 61 60 61 61 61 60 60 60 59 59 60 59 59 60 60 60 59 59 60 60 60 60 62 63 62 61 61 61 61 60 60 61 63 65 67 67 67 68 67 67 67 67 65 64 66 67 68 67 67 68 69 67 67 66 66 65 63 64 65 66 67
60 60 61 61 61 60 61 61 60 60 60 60 60 60 61 61 61 60 60 60 60 60 60 59 60 59 59 59 59 59 59 59 60 60 61 61 62 62 61 60 60 60 60 60 61 61 63 66 66 65 65 66 66 67 66 66 66 64 66 66 67 67 67 67 67 67 66 66 66 64 65 66 66 67
60 59 59 60 61 61 62 61 61 62 61 61 61 61 62 60 61 61 60 60 61 60 60 60 60 60 59 59 59 59 58 58 59 59 59 59 60 60 60 60 60 59 60 60 61 62 62 62 64 64 63 63 63 63 66 63 63 66 65 65 65 66 67 66 67 68 66 65 66 65 64 65 68 69
59 59 59 59 60 60 60 61 61 61 62 61 61 62 62 62 61 61 60 60 61 61 60 60 60 60 60 59 59 58 58 59 59 58 58 59 59 60 60 60 60 60 59 60 60 62 62 61 60 61 61 61 62 61 64 68 61 60 68 65 65 65 66 66 66 65 66 66 66 66 67 68 69 70
57 58 58 58 58 58 58 59 60 60 61 61 62 61 61 61 61 62 62 62 60 60 60 60 60 59 60 59 59 59 59 58 58 58 58 59 59 59 60 59 59 59 59 59 60 61 62 62 60 59 60 60 59 60 63 66 67 63 54 64 65 64 65 66 65 65 65 66 67 67 68 67 69 70
56 55 55 56 56 56 56 56 57 57 58 59 60 60 61 61 61 61 61 61 61 61 61 60 60 59 59 60 59 58 58 57 58 58 58 58 59 59 59 58 58 58 59 59 59 60 61 61 60 60 59 58 58 59 60 62 63 67 61 49 63 65 63 66 65 65 65 65 67 69 69 68 65 60
53 52 51 51 51 51 52 53 54 54 54 55 56 57 58 58 59 60 61 60 61 60 61 61 61 59 60 60 59 59 59 59 58 58 58 58 58 59 59 59 59 58 57 57 58 59 60 61 62 62 62 62 62 62 61 60 62 61 63 58 47 59 65 64 65 65 65 66 65 66 66 64 66 67
49 48 48 48 47 47 48 48 50 51 51 51 52 52 53 52 52 53 54 55 58 60 61 61 60 60 60 60 60 60 59 58 58 58 59 59 58 59 59 59 60 59 59 59 59 59 60 62 64 64 63 61 61 62 62 61 61 60 59 62 54 50 55 60 66 66 65 63 64 64 63 63 64 63
46 45 46 45 45 45 45 45 46 47 48 49 49 50 51 50 49 48 50 50 50 52 54 56 58 60 60 60 61 60 61 60 59 59 59 60 59 59 59 59 60 59 60 60 60 62 64 61 63 63 62 62 63 61 61 59 60 60 60 61 64 55 51 50 52 55 63 63 62 61 60 61 61 61
46 45 44 44 44 44 44 44 44 44 45 46 47 47 48 49 48 47 47 46 46 48 49 50 51 54 56 58 59 59 61 61 62 62 61 60 61 61 60 61 62 63 63 65 64 63 64 64 63 63 62 61 59 61 62 61 62 63 63 65 65 64 63 54 52 51 54 57 57 62 67 67 64 63
44 44 43 43 42 42 42 43 43 43 43 44 45 46 46 45 45 45 45 45 45 45 47 48 49 50 51 53 56 58 58 59 60 61 61 61 60 61 61 61 60 60 61 62 62 62 63 63 63 64 63 62 61 62 61 60 62 63 65 63 62 62 65 68 67 58 57 56 55 53 52 55 59 60
43 42 42 41 41 41 41 41 42 42 42 43 43 44 44 44 44 44 44 44 44 45 46 47 48 49 50 52 53 54 56 54 57 59 60 60 60 60 60 61 60 59 60 60 61 62 61 62 62 62 64 64 63 64 63 62 63 62 62 61 64 62 65 65 68 69 69 70 62 53 53 53 55 55
MSLP
1012.92 1013.00 1013.08 1013.16 1013.16 1013.20 1013.28 1013.40 1013.52 1013.60 1013.72 1013.88 1014.04 1014.08 1014.48 1014.96 1015.76 1015.88 1015.64 1015.00 1014.92 1013.96 1013.72 1014.20 1013.32 1013.00 1013.04 1013.08 1012.88 1013.08 1013.08 1012.92 1013.00 1013.12 1013.20 1013.28 1013.32 1013.32 1013.44 1013.56 1013.64 1013.72 1013.80 1013.92 1014.00 1014.08 1014.16 1014.24 1014.32 1014.36 1014.36 1014.40 1014.44 1014.48 1014.56 1014.64 1014.68 1014.72 1014.76 1014.80 1014.84 1014.92 1014.96 1015.08 1015.20 1015.32 1015.44 1015.48 1015.56 1015.60 1015.68 1015.80 1015.96 1016.04
1012.44 1012.56 1012.68 1012.76 1012.76 1012.64 1012.88 1013.00 1013.00 1013.16 1013.24 1013.40 1013.56 1013.68 1013.72 1014.08 1014.88 1014.92 1015.36 1014.60 1013.92 1013.84 1013.44 1013.16 1013.20 1012.80 1012.88 1012.72 1012.76 1012.72 1012.68 1012.52 1012.68 1012.80 1012.88 1012.96 1012.92 1012.92 1013.04 1013.12 1013.24 1013.36 1013.44 1013.56 1013.64 1013.68 1013.76 1013.80 1013.88 1013.92 1014.00 1014.00 1014.04 1014.08 1014.16 1014.24 1014.36 1014.44 1014.48 1014.56 1014.60 1014.60 1014.64 1014.72 1014.88 1014.96 1015.04 1015.16 1015.24 1015.28 1015.36 1015.44 1015.60 1015.72
1012.08 1012.16 1012.28 1012.28 1012.32 1012.24 1012.44 1012.52 1012.64 1012.76 1012.88 1013.00 1013.08 1013.20 1013.32 1013.56 1013.80 1014.20 1014.40 1014.92 1013.12 1012.96 1013.40 1012.96 1012.40 1012.48 1012.52 1012.44 1012.44 1012.48 1012.40 1012.32 1012.40 1012.52 1012.56 1012.56 1012.52 1012.64 1012.72 1012.84 1012.92 1013.04 1013.08 1013.16 1013.24 1013.32 1013.36 1013.40 1013.48 1013.56 1013.60 1013.68 1013.72 1013.76 1013.80 1013.88 1014.00 1014.08 1014.20 1014.32 1014.36 1014.32 1014.32 1014.44 1014.52 1014.60 1014.64 1014.76 1014.88 1015.00 1015.08 1015.16 1015.28 1015.40
1011.56 1011.72 1011.84 1011.80 1011.84 1011.88 1012.04 1012.20 1012.28 1012.36 1012.48 1012.52 1012.72 1012.80 1012.92 1013.00 1013.16 1013.52 1013.92 1014.16 1013.44 1012.56 1012.64 1012.52 1012.48 1012.28 1012.32 1012.28 1012.44 1012.32 1012.24 1012.00 1012.20 1012.20 1012.24 1012.16 1012.32 1012.48 1012.48 1012.48 1012.56 1012.64 1012.72 1012.80 1012.88 1012.92 1013.00 1013.08 1013.12 1013.20 1013.24 1013.32 1013.36 1013.44 1013.48 1013.56 1013.64 1013.76 1013.88 1013.96 1013.96 1013.92 1013.96 1014.04 1014.16 1014.20 1014.24 1014.36 1014.48 1014.64 1014.72 1014.84 1015.00 1015.12
1011.08 1011.16 1011.28 1011.24 1011.24 1011.32 1011.64 1011.72 1011.84 1012.00 1012.08 1012.20 1012.32 1012.36 1012.52 1012.68 1012.68 1013.12 1013.48 1013.72 1013.28 1012.44 1012.12 1012.28 1012.28 1012.08 1012.16 1012.36 1012.00 1012.08 1012.00 1012.00 1011.92 1011.92 1011.88 1011.92 1012.12 1012.16 1012.24 1012.16 1012.16 1012.28 1012.36 1012.44 1012.52 1012.60 1012.68 1012.76 1012.80 1012.88 1012.92 1012.96 1013.04 1013.08 1013.20 1013.32 1013.40 1013.48 1013.56 1013.60 1013.60 1013.64 1013.68 1013.72 1013.80 1013.84 1013.92 1014.00 1014.12 1014.24 1014.36 1014.48 1014.68 1014.84
1010.56 1010.60 1010.72 1010.68 1010.72 1010.84 1011.12 1011.20 1011.36 1011.40 1011.60 1011.76 1011.96 1012.04 1012.16 1012.28 1012.28 1012.28 1012.88 1012.96 1013.04 1012.64 1012.16 1012.28 1011.92 1012.04 1011.92 1012.16 1011.60 1011.76 1011.84 1011.76 1011.68 1011.84 1011.80 1011.72 1011.80 1011.92 1011.92 1012.00 1011.92 1011.96 1012.08 1012.16 1012.24 1012.28 1012.36 1012.44 1012.48 1012.52 1012.60 1012.64 1012.72 1012.76 1012.88 1013.00 1013.08 1013.16 1013.24 1013.28 1013.36 1013.44 1013.52 1013.52 1013.52 1013.52 1013.56 1013.64 1013.72 1013.84 1014.00 1014.16 1014.32 1014.52
1009.96 1010.04 1010.08 1010.08 1010.12 1010.32 1010.64 1010.68 1010.68 1010.80 1011.04 1011.16 1011.40 1011.48 1011.52 1011.72 1011.72 1011.72 1011.88 1012.36 1012.60 1012.48 1012.12 1011.80 1012.12 1012.00 1011.88 1011.88 1011.64 1011.48 1011.32 1011.28 1011.36 1011.60 1011.64 1011.64 1011.60 1011.56 1011.60 1011.72 1011.64 1011.68 1011.80 1011.88 1011.92 1011.96 1012.00 1012.08 1012.16 1012.20 1012.28 1012.32 1012.40 1012.48 1012.56 1012.68 1012.76 1012.80 1012.88 1012.92 1012.96 1013.04 1013.12 1013.20 1013.20 1013.20 1013.20 1013.24 1013.36 1013.48 1013.68 1013.84 1014.00 1014.12
1009.48 1009.52 1009.60 1009.44 1009.52 1009.68 1010.00 1010.08 1010.20 1010.28 1010.40 1010.60 1010.76 1010.92 1010.96 1011.12 1011.20 1011.20 1011.32 1011.44 1011.88 1011.96 1012.24 1011.60 1011.76 1011.52 1011.88 1011.60 1011.28 1011.20 1011.16 1011.24 1011.36 1011.32 1011.32 1011.32 1011.44 1011.40 1011.40 1011.48 1011.48 1011.40 1011.48 1011.52 1011.64 1011.68 1011.72 1011.76 1011.80 1011.88 1011.96 1012.00 1012.08 1012.16 1012.24 1012.32 1012.44 1012.52 1012.56 1012.60 1012.60 1012.60 1012.64 1012.72 1012.76 1012.80 1012.80 1012.88 1013.00 1013.12 1013.28 1013.44 1013.60 1013.76
1008.92 1008.96 1009.00 1008.92 1008.96 1009.12 1009.40 1009.44 1009.60 1009.64 1009.88 1009.96 1010.16 1010.32 1010.44 1010.64 1010.64 1010.72 1010.88 1011.08 1011.36 1011.68 1011.76 1011.36 1011.20 1011.28 1011.40 1011.20 1011.12 1011.08 1011.36 1011.36 1011.28 1011.20 1011.28 1011.20 1011.24 1011.28 1011.20 1011.20 1011.12 1011.16 1011.24 1011.32 1011.40 1011.40 1011.44 1011.44 1011.48 1011.56 1011.64 1011.68 1011.76 1011.80 1011.88 1011.96 1012.04 1012.08 1012.16 1012.20 1012.28 1012.28 1012.32 1012.36 1012.40 1012.40 1012.40 1012.48 1012.64 1012.80 1012.92 1013.08 1013.24 1013.40
1008.32 1008.36 1008.36 1008.40 1008.52 1008.56 1008.68 1008.72 1008.80 1008.92 1009.12 1009.36 1009.60 1009.76 1009.92 1010.04 1010.16 1010.36 1010.44 1010.64 1010.92 1011.16 1011.08 1011.16 1011.28 1011.16 1011.40 1011.40 1011.20 1010.88 1010.88 1011.16 1011.40 1011.36 1011.20 1011.16 1011.20 1011.32 1011.36 1011.12 1010.96 1010.96 1011.08 1011.12 1011.08 1011.12 1011.16 1011.12 1011.12 1011.20 1011.32 1011.40 1011.48 1011.52 1011.60 1011.64 1011.68 1011.76 1011.84 1011.92 1012.00 1012.04 1012.04 1012.04 1012.08 1012.08 1012.12 1012.20 1012.32 1012.48 1012.60 1012.76 1012.96 1013.12
1007.76 1007.80 1007.80 1007.88 1007.76 1007.84 1007.80 1007.96 1008.12 1008.32 1008.48 1008.68 1008.92 1009.04 1009.28 1009.48 1009.80 1009.96 1010.08 1010.24 1010.52 1010.68 1010.76 1010.72 1010.80 1011.00 1010.84 1011.00 1011.20 1010.84 1010.68 1010.72 1010.84 1011.20 1011.44 1011.48 1011.08 1011.12 1011.20 1011.20 1010.88 1010.88 1010.92 1010.76 1010.76 1010.80 1010.80 1010.80 1010.84 1010.92 1011.04 1011.16 1011.20 1011.24 1011.28 1011.32 1011.32 1011.36 1011.44 1011.56 1011.64 1011.72 1011.76 1011.80 1011.80 1011.84 1011.92 1012.04 1012.16 1012.28 1012.44 1012.56 1012.72 1012.88
1007.36 1007.24 1007.32 1007.40 1007.28 1007.16 1007.08 1007.20 1007.36 1007.56 1007.84 1008.00 1008.28 1008.36 1008.68 1009.00 1009.32 1009.52 1009.64 1009.88 1010.04 1010.20 1010.32 1010.40 1010.52 1010.64 1010.76 1010.84 1010.72 1010.68 1010.84 1011.12 1011.12 1010.88 1011.08 1011.40 1011.24 1011.12 1010.96 1010.92 1011.08 1010.84 1010.92 1010.88 1010.76 1010.68 1010.72 1010.72 1010.68 1010.72 1010.80 1010.88 1010.96 1011.00 1011.00 1011.00 1011.00 1011.00 1011.04 1011.12 1011.20 1011.28 1011.40 1011.48 1011.56 1011.68 1011.80 1011.92 1012.08 1012.20 1012.32 1012.44 1012.52 1012.64
1006.96 1006.76 1006.64 1006.56 1006.48 1006.44 1006.40 1006.48 1006.60 1006.68 1006.84 1007.24 1007.68 1007.80 1008.04 1008.40 1008.72 1008.96 1009.16 1009.36 1009.56 1009.72 1009.92 1010.00 1010.08 1010.36 1010.52 1010.44 1010.64 1010.84 1010.84 1010.84 1010.64 1010.48 1010.68 1010.96 1010.76 1010.80 1011.04 1010.80 1010.64 1010.68 1010.88 1010.80 1010.76 1010.64 1010.52 1010.60 1010.56 1010.60 1010.68 1010.60 1010.72 1010.80 1010.80 1010.72 1010.72 1010.72 1010.76 1010.84 1010.92 1011.00 1011.08 1011.20 1011.32 1011.44 1011.60 1011.76 1011.88 1012.00 1012.12 1012.20 1012.32 1012.48
1006.52 1006.28 1006.08 1005.84 1005.76 1005.80 1005.88 1005.96 1006.04 1006.16 1006.32 1006.40 1006.48 1006.76 1007.24 1007.68 1008.04 1008.32 1008.64 1008.88 1009.00 1009.24 1009.48 1009.52 1009.68 1010.08 1010.12 1010.00 1010.00 1010.12 1009.96 1009.84 1009.96 1010.36 1010.56 1010.92 1010.68 1010.84 1011.04 1010.76 1010.40 1010.24 1010.56 1010.80 1010.88 1010.44 1010.12 1010.32 1010.44 1010.52 1010.60 1010.40 1010.56 1010.60 1010.56 1010.44 1010.40 1010.44 1010.56 1010.68 1010.76 1010.84 1010.92 1011.00 1011.12 1011.24 1011.40 1011.52 1011.68 1011.84 1011.88 1011.96 1012.12 1012.28
1006.04 1005.80 1005.56 1005.40 1005.28 1005.32 1005.36 1005.44 1005.56 1005.60 1005.72 1005.88 1006.04 1006.16 1006.28 1006.52 1006.96 1007.56 1008.00 1008.20 1008.40 1008.68 1008.80 1008.76 1009.08 1009.36 1009.44 1009.36 1009.32 1009.48 1009.40 1009.60 1009.80 1009.92 1010.12 1010.32 1010.56 1010.92 1011.24 1011.28 1010.20 1009.68 1010.08 1010.52 1010.64 1010.40 1009.88 1010.04 1010.40 1010.32 1010.32 1010.28 1010.36 1010.36 1010.28 1010.20 1010.28 1010.36 1010.40 1010.44 1010.56 1010.64 1010.72 1010.80 1010.96 1011.08 1011.20 1011.32 1011.48 1011.60 1011.72 1011.88 1012.00 1012.16
1005.56 1005.32 1005.12 1004.92 1004.80 1004.72 1004.68 1004.72 1004.80 1005.00 1005.12 1005.28 1005.52 1005.76 1005.92 1006.00 1006.08 1006.16 1006.64 1007.28 1007.80 1008.04 1008.32 1008.44 1008.44 1008.64 1008.80 1008.76 1008.88 1009.00 1009.20 1009.36 1009.52 1009.56 1009.76 1010.00 1010.20 1010.44 1010.72 1010.72 1010.80 1009.80 1009.60 1010.24 1010.56 1010.40 1009.76 1009.76 1010.04 1010.16 1010.00 1010.00 1010.04 1010.04 1010.04 1010.08 1010.12 1010.20 1010.24 1010.28 1010.36 1010.44 1010.52 1010.64 1010.80 1010.88 1010.96 1011.08 1011.24 1011.44 1011.64 1011.76 1011.88 1012.04
1005.04 1004.88 1004.68 1004.48 1004.28 1004.12 1004.16 1004.20 1004.12 1004.16 1004.28 1004.60 1004.88 1005.12 1005.40 1005.56 1005.60 1005.72 1005.80 1005.92 1006.28 1006.80 1007.40 1007.68 1007.84 1007.80 1007.92 1008.36 1008.28 1008.16 1008.32 1008.48 1009.16 1009.32 1009.64 1009.64 1009.72 1009.80 1010.04 1009.96 1009.88 1009.64 1009.48 1009.96 1010.44 1010.44 1009.72 1009.68 1009.92 1010.04 1009.68 1009.68 1009.80 1009.88 1009.92 1009.92 1009.96 1010.00 1010.08 1010.12 1010.16 1010.20 1010.24 1010.40 1010.56 1010.68 1010.80 1011.00 1011.16 1011.36 1011.56 1011.72 1011.84 1011.92
1004.64 1004.40 1004.16 1003.96 1003.76 1003.56 1003.48 1003.52 1003.52 1003.48 1003.52 1003.64 1004.04 1004.56 1004.80 1004.92 1005.04 1005.24 1005.20 1005.48 1005.76 1005.96 1006.36 1006.80 1007.12 1006.88 1007.08 1007.44 1007.32 1007.36 1007.64 1008.28 1008.60 1008.92 1009.16 1009.12 1009.40 1009.56 1009.48 1009.00 1009.16 1009.16 1009.16 1009.80 1010.08 1010.28 1009.68 1009.44 1009.68 1009.84 1009.52 1009.36 1009.52 1009.68 1009.72 1009.80 1009.80 1009.84 1009.92 1009.96 1010.00 1010.00 1010.08 1010.24 1010.36 1010.44 1010.56 1010.84 1011.04 1011.20 1011.44 1011.60 1011.72 1011.88
1005.20 1004.88 1004.52 1004.04 1003.56 1003.16 1002.96 1002.76 1002.72 1002.80 1002.84 1003.00 1003.16 1003.44 1003.76 1004.00 1004.12 1004.44 1004.72 1004.92 1005.16 1005.48 1005.52 1005.84 1006.04 1006.20 1006.40 1006.52 1006.72 1006.96 1007.12 1007.32 1007.48 1007.68 1008.04 1008.32 1008.56 1008.76 1008.80 1009.04 1009.08 1009.12 1008.92 1009.24 1009.80 1010.32 1009.44 1009.16 1009.56 1009.56 1009.36 1009.28 1009.44 1009.48 1009.60 1009.64 1009.72 1009.80 1009.84 1009.88 1009.92 1009.96 1010.04 1010.24 1010.28 1010.28 1010.52 1010.76 1010.88 1011.08 1011.40 1011.56 1011.68 1011.84
1005.36 1005.00 1004.68 1004.44 1004.04 1003.36 1002.68 1002.16 1002.08 1002.04 1002.12 1002.24 1002.32 1002.56 1002.84 1003.16 1003.44 1003.60 1003.64 1004.00 1004.32 1004.56 1004.92 1005.16 1005.40 1005.56 1005.76 1005.96 1006.32 1006.52 1006.68 1006.92 1007.16 1007.44 1007.68 1007.96 1008.40 1008.88 1009.32 1009.48 1009.12 1009.24 1008.80 1008.96 1009.44 1009.72 1009.48 1009.08 1009.40 1009.32 1009.04 1009.16 1009.44 1009.40 1009.48 1009.52 1009.64 1009.76 1009.88 1009.92 1009.96 1010.04 1010.12 1010.36 1010.40 1010.32 1010.52 1010.84 1010.92 1011.08 1011.40 1011.60 1011.72 1011.80
1005.68 1005.36 1004.88 1004.44 1004.28 1003.68 1003.00 1002.40 1001.68 1001.24 1001.40 1001.40 1001.52 1001.68 1002.04 1002.48 1002.92 1003.16 1003.24 1003.60 1003.96 1004.28 1004.52 1004.76 1004.96 1005.28 1005.56 1005.84 1006.08 1006.28 1006.32 1006.44 1006.72 1007.28 1008.04 1008.36 1008.32 1008.88 1009.24 1009.20 1009.20 1009.04 1008.72 1008.84 1008.80 1009.12 1009.36 1009.08 1009.16 1009.32 1009.32 1009.32 1009.40 1009.36 1009.40 1009.40 1009.60 1009.76 1009.88 1009.96 1010.04 1010.08 1010.16 1010.32 1010.44 1010.48 1010.48 1010.64 1010.96 1011.08 1011.32 1011.60 1011.80 1011.96
1005.88 1005.44 1005.08 1004.44 1004.20 1003.80 1003.32 1002.44 1001.52 1001.12 1000.96 1000.80 1000.88 1001.12 1001.56 1002.08 1002.52 1002.84 1003.00 1003.40 1003.80 1003.96 1004.20 1004.52 1004.88 1005.12 1005.32 1005.56 1005.76 1005.92 1006.04 1006.16 1006.36 1006.96 1007.76 1007.52 1007.88 1008.44 1008.60 1008.92 1008.88 1008.68 1008.56 1008.48 1008.36 1009.16 1009.04 1008.84 1008.92 1009.32 1009.44 1009.44 1009.36 1009.36 1009.40 1009.48 1009.64 1009.80 1009.96 1010.04 1010.08 1010.12 1010.16 1010.28 1010.40 1010.56 1010.64 1010.72 1010.84 1011.08 1011.32 1011.64 1011.96 1012.20
1005.96 1005.56 1005.12 1004.68 1004.32 1003.92 1003.40 1002.64 1001.96 1001.32 1000.84 1000.60 1000.52 1000.76 1001.24 1001.72 1002.08 1002.20 1002.44 1002.92 1003.48 1003.92 1004.36 1004.64 1004.92 1005.12 1005.16 1005.28 1005.48 1005.64 1005.80 1005.88 1006.04 1006.20 1006.52 1006.88 1007.48 1008.00 1008.20 1008.32 1008.52 1009.00 1008.64 1007.92 1007.80 1008.80 1008.80 1008.80 1008.88 1009.08 1009.64 1009.88 1009.44 1009.28 1009.36 1009.52 1009.64 1009.72 1009.84 1009.96 1010.08 1010.20 1010.24 1010.28 1010.36 1010.48 1010.60 1010.76 1010.88 1011.00 1011.28 1011.64 1011.96 1012.16
1005.92 1005.64 1005.28 1004.76 1004.40 1003.88 1003.36 1003.04 1002.60 1002.04 1001.40 1000.80 1000.68 1000.72 1001.04 1001.32 1001.52 1001.40 1001.80 1002.16 1002.64 1003.28 1003.72 1004.12 1004.36 1004.64 1004.88 1005.12 1005.28 1005.44 1005.68 1005.80 1005.84 1005.92 1006.08 1006.32 1006.72 1007.24 1007.56 1007.68 1007.92 1008.20 1007.96 1007.44 1007.32 1008.08 1008.20 1008.24 1008.80 1008.60 1008.88 1009.56 1009.96 1009.52 1009.44 1009.56 1009.60 1009.68 1009.76 1009.92 1010.00 1010.16 1010.20 1010.28 1010.36 1010.48 1010.52 1010.64 1010.76 1011.00 1011.24 1011.60 1011.84 1012.04
1006.36 1005.80 1005.48 1005.16 1004.72 1004.20 1003.72 1003.32 1002.92 1002.72 1002.28 1001.88 1001.52 1001.36 1001.20 1001.36 1001.40 1001.32 1001.60 1001.92 1002.32 1002.80 1003.12 1003.56 1004.00 1004.28 1004.52 1004.80 1005.00 1005.20 1005.40 1005.56 1005.72 1005.80 1005.84 1005.88 1006.00 1006.40 1006.92 1007.32 1007.68 1007.68 1007.56 1007.24 1007.08 1007.52 1008.36 1008.36 1008.76 1008.80 1009.08 1009.04 1009.12 1009.44 1009.40 1009.44 1009.60 1009.68 1009.72 1009.76 1009.92 1010.12 1010.16 1010.20 1010.24 1010.32 1010.48 1010.60 1010.72 1010.88 1011.16 1011.44 1011.68 1011.72
1006.56 1006.16 1005.80 1005.44 1005.12 1004.64 1004.28 1004.00 1003.52 1003.20 1002.96 1002.68 1002.36 1002.52 1002.12 1001.56 1001.56 1001.56 1001.56 1001.68 1002.00 1002.52 1002.92 1003.24 1003.64 1003.96 1004.32 1004.60 1004.88 1005.08 1005.20 1005.32 1005.52 1005.60 1005.64 1005.64 1005.72 1005.84 1006.00 1006.36 1007.00 1007.56 1007.48 1007.08 1007.04 1007.44 1008.08 1008.76 1008.44 1008.76 1008.92 1009.16 1009.36 1009.20 1009.60 1009.56 1009.48 1009.60 1009.64 1009.76 1009.80 1009.92 1010.00 1010.08 1010.12 1010.20 1010.36 1010.44 1010.60 1010.76 1010.96 1011.24 1011.44 1011.56
1006.88 1006.52 1006.16 1005.80 1005.48 1005.04 1004.64 1004.52 1004.16 1003.80 1003.52 1003.28 1003.08 1002.76 1002.44 1002.08 1001.84 1001.64 1001.60 1001.72 1002.08 1002.44 1002.84 1003.16 1003.48 1003.76 1004.00 1004.44 1004.72 1004.92 1005.04 1005.08 1005.28 1005.44 1005.40 1005.48 1005.64 1005.76 1005.84 1005.84 1006.00 1006.32 1006.48 1006.68 1006.76 1007.04 1007.40 1007.96 1007.92 1008.28 1008.64 1008.60 1009.12 1009.40 1009.40 1009.52 1009.48 1009.40 1009.68 1009.76 1009.80 1009.84 1009.92 1009.96 1010.08 1010.12 1010.20 1010.36 1010.44 1010.72 1010.96 1011.20 1011.36 1011.48
1007.00 1006.76 1006.44 1006.12 1005.84 1005.40 1005.04 1004.72 1004.40 1004.24 1003.96 1003.80 1003.48 1003.12 1002.84 1002.48 1002.08 1001.92 1001.96 1002.04 1002.04 1002.36 1002.80 1003.16 1003.48 1003.72 1003.92 1004.20 1004.48 1004.68 1004.76 1004.92 1005.00 1005.24 1005.24 1005.36 1005.52 1005.88 1005.84 1005.84 1005.96 1006.04 1006.20 1006.44 1006.56 1006.64 1006.84 1007.32 1007.68 1007.68 1007.88 1008.32 1008.84 1009.20 1009.32 1009.00 1009.00 1009.28 1009.52 1009.64 1009.68 1009.76 1009.84 1009.88 1009.96 1010.04 1010.12 1010.24 1010.44 1010.68 1010.80 1011.16 1011.44 1011.60
1006.96 1006.84 1006.60 1006.20 1005.76 1005.48 1005.24 1004.92 1004.52 1004.28 1004.16 1004.12 1003.84 1003.48 1003.32 1003.16 1002.88 1002.76 1002.64 1002.60 1002.68 1002.80 1002.92 1003.28 1003.68 1003.92 1004.08 1004.04 1004.00 1004.16 1004.56 1004.84 1004.88 1005.08 1005.32 1005.32 1005.40 1005.68 1005.88 1005.92 1006.00 1006.08 1006.16 1006.36 1006.60 1006.64 1006.76 1006.92 1007.20 1007.40 1007.76 1007.88 1008.20 1008.36 1008.40 1008.76 1008.92 1009.20 1009.28 1009.60 1009.84 1009.64 1009.68 1009.76 1009.88 1010.00 1010.08 1010.16 1010.32 1010.48 1010.56 1010.72 1011.08 1011.36
1006.80 1006.72 1006.48 1006.16 1005.76 1005.44 1005.28 1005.04 1004.76 1004.64 1004.52 1004.40 1004.24 1004.00 1003.84 1003.80 1003.56 1003.56 1003.48 1003.32 1003.40 1003.60 1003.40 1003.48 1003.96 1004.28 1004.20 1004.08 1004.08 1004.28 1004.56 1005.00 1005.24 1005.12 1005.44 1005.60 1005.76 1005.84 1006.00 1006.20 1006.28 1006.20 1006.16 1006.20 1006.52 1006.76 1006.80 1006.88 1006.92 1007.20 1007.56 1007.84 1007.84 1008.16 1008.28 1008.60 1009.00 1008.92 1009.12 1009.32 1009.20 1009.28 1009.44 1009.60 1009.76 1009.88 1010.00 1010.16 1010.28 1010.44 1010.48 1010.56 1010.76 1011.04
1006.60 1006.36 1006.28 1006.12 1005.84 1005.56 1005.40 1005.24 1005.08 1004.96 1004.88 1004.84 1004.72 1004.56 1004.40 1004.28 1004.08 1004.08 1004.12 1004.08 1004.12 1004.08 1003.76 1003.80 1004.16 1004.36 1004.36 1004.12 1004.24 1004.68 1005.04 1005.32 1005.32 1005.20 1005.32 1005.68 1005.96 1006.16 1006.16 1006.32 1006.60 1006.52 1006.52 1006.32 1006.24 1006.48 1006.72 1006.96 1007.12 1007.12 1007.60 1007.88 1008.00 1008.08 1008.16 1008.16 1008.64 1008.88 1008.96 1009.04 1009.16 1009.32 1009.20 1009.40 1009.64 1009.80 1009.92 1010.12 1010.28 1010.40 1010.56 1010.68 1010.80 1010.92
1006.80 1006.44 1006.12 1005.96 1005.80 1005.60 1005.44 1005.32 1005.20 1005.16 1005.12 1005.08 1005.08 1005.00 1004.80 1004.64 1004.48 1004.44 1004.40 1004.32 1004.36 1004.40 1004.28 1004.24 1004.24 1004.48 1004.60 1004.88 1005.08 1005.08 1005.24 1005.44 1005.56 1005.44 1005.56 1005.92 1006.20 1006.28 1006.48 1006.68 1007.00 1006.72 1006.72 1006.76 1006.80 1006.80 1006.64 1006.88 1007.40 1007.52 1007.16 1007.40 1007.88 1008.16 1008.20 1008.28 1008.44 1008.52 1008.76 1008.84 1009.04 1009.04 1009.16 1009.40 1009.56 1009.72 1009.76 1009.96 1010.28 1010.48 1010.56 1010.64 1010.76 1010.84
1006.84 1006.52 1006.28 1006.08 1005.88 1005.76 1005.72 1005.52 1005.36 1005.24 1005.20 1005.24 1005.20 1005.12 1005.00 1004.92 1004.88 1004.84 1004.80 1004.84 1004.84 1004.92 1004.80 1004.84 1004.92 1005.08 1005.16 1005.48 1005.52 1005.40 1005.56 1005.80 1005.84 1005.80 1005.92 1006.04 1006.16 1006.40 1006.56 1006.92 1006.92 1006.84 1006.92 1007.00 1007.16 1007.20 1006.88 1006.84 1007.00 1007.24 1007.28 1007.32 1007.44 1007.68 1008.12 1008.64 1008.52 1008.36 1008.52 1008.68 1008.88 1009.04 1009.04 1009.12 1009.32 1009.60 1009.72 1009.96 1010.16 1010.28 1010.48 1010.48 1010.52 1010.60
1007.20 1006.92 1006.72 1006.56 1006.40 1006.20 1005.96 1005.80 1005.72 1005.60 1005.44 1005.36 1005.36 1005.40 1005.28 1005.20 1005.20 1005.24 1005.24 1005.12 1005.08 1005.12 1005.20 1005.20 1005.32 1005.52 1005.64 1005.76 1005.80 1005.84 1006.04 1006.28 1006.32 1006.20 1006.04 1006.32 1006.24 1006.52 1006.88 1007.08 1007.24 1007.12 1007.08 1007.12 1007.32 1007.28 1007.04 1007.08 1007.16 1007.28 1007.36 1007.52 1007.60 1007.72 1007.84 1008.04 1008.32 1008.36 1008.32 1008.36 1008.60 1008.80 1008.72 1008.84 1009.04 1009.24 1009.52 1009.72 1009.92 1010.28 1010.40 1010.44 1010.36 1010.36
1007.16 1007.12 1006.96 1006.80 1006.56 1006.40 1006.24 1006.08 1005.96 1005.80 1005.68 1005.52 1005.44 1005.44 1005.44 1005.40 1005.36 1005.32 1005.36 1005.36 1005.28 1005.24 1005.28 1005.32 1005.52 1005.68 1005.80 1005.96 1006.04 1006.20 1006.36 1006.44 1006.40 1006.36 1006.44 1006.44 1006.44 1006.64 1006.92 1007.20 1007.48 1007.36 1007.28 1007.36 1007.60 1007.40 1007.28 1007.44 1007.52 1007.80 1008.00 1008.04 1008.12 1008.04 1007.76 1007.88 1008.12 1008.36 1008.36 1008.44 1008.40 1008.56 1008.72 1008.76 1008.92 1009.12 1009.32 1009.56 1009.68 1010.04 1010.16 1010.20 1010.24 1010.16
1007.44 1007.40 1007.36 1007.16 1006.92 1006.68 1006.48 1006.32 1006.16 1005.96 1005.80 1005.64 1005.48 1005.40 1005.36 1005.44 1005.44 1005.40 1005.44 1005.44 1005.32 1005.36 1005.40 1005.52 1005.68 1005.84 1005.96 1006.12 1006.28 1006.44 1006.56 1006.56 1006.56 1006.60 1006.68 1006.76 1006.88 1007.04 1007.16 1007.40 1007.56 1007.68 1007.64 1007.56 1007.60 1007.60 1007.68 1007.92 1007.92 1008.12 1008.48 1008.68 1008.72 1008.88 1008.48 1008.08 1008.04 1008.16 1008.44 1008.64 1008.56 1008.60 1008.64 1008.76 1008.84 1008.96 1009.20 1009.44 1009.52 1009.76 1010.08 1010.16 1010.00 1009.84
1007.80 1007.68 1007.52 1007.40 1007.24 1007.04 1006.84 1006.52 1006.28 1006.16 1006.04 1005.72 1005.44 1005.44 1005.40 1005.36 1005.40 1005.44 1005.52 1005.44 1005.44 1005.56 1005.68 1005.76 1005.88 1005.96 1006.16 1006.32 1006.48 1006.68 1006.84 1006.80 1006.92 1006.88 1006.92 1007.00 1007.08 1007.20 1007.40 1007.68 1007.84 1007.88 1007.88 1008.00 1007.96 1007.80 1007.80 1008.04 1008.28 1008.32 1008.60 1008.88 1009.00 1009.08 1008.92 1008.28 1008.20 1008.08 1008.20 1008.48 1008.68 1008.60 1008.64 1008.72 1008.88 1009.08 1009.12 1009.16 1009.40 1009.56 1009.68 1009.72 1009.76 1009.60
1008.40 1008.12 1007.92 1007.76 1007.72 1007.48 1007.20 1006.92 1006.56 1006.32 1006.16 1006.00 1005.76 1005.64 1005.60 1005.48 1005.48 1005.56 1005.56 1005.56 1005.72 1005.80 1005.92 1006.04 1006.24 1006.28 1006.32 1006.36 1006.52 1006.76 1006.88 1007.00 1007.00 1007.04 1007.12 1007.16 1007.24 1007.48 1007.64 1007.84 1008.00 1008.04 1008.08 1008.20 1008.16 1008.04 1008.00 1008.12 1008.28 1008.44 1008.56 1008.88 1009.08 1009.08 1009.04 1008.64 1008.48 1008.36 1008.44 1008.32 1008.48 1008.68 1008.64 1008.76 1009.00 1009.12 1009.24 1009.12 1009.28 1009.28 1009.28 1009.60 1009.60 1009.52
1009.04 1008.96 1008.76 1008.56 1008.44 1008.20 1008.00 1007.76 1007.44 1007.20 1006.92 1006.48 1006.24 1006.20 1006.12 1006.12 1006.00 1005.84 1005.76 1005.92 1006.00 1006.04 1006.24 1006.36 1006.40 1006.40 1006.48 1006.56 1006.64 1006.72 1006.84 1006.96 1007.08 1007.20 1007.32 1007.44 1007.52 1007.60 1007.84 1007.96 1008.04 1008.16 1008.20 1008.32 1008.44 1008.48 1008.36 1008.40 1008.52 1008.56 1008.64 1008.76 1008.92 1008.96 1008.76 1008.80 1008.84 1008.60 1008.48 1008.56 1008.40 1008.60 1008.80 1008.72 1008.92 1009.00 1009.12 1009.28 1009.28 1009.12 1009.24 1009.36 1009.44 1009.56
1010.16 1010.08 1010.04 1009.88 1009.64 1009.36 1009.08 1008.68 1008.32 1008.16 1008.00 1007.68 1007.36 1007.16 1006.92 1006.84 1006.72 1006.60 1006.60 1006.64 1006.60 1006.56 1006.48 1006.40 1006.56 1006.56 1006.60 1006.68 1006.76 1006.84 1006.96 1007.04 1007.12 1007.28 1007.36 1007.52 1007.72 1007.80 1007.88 1008.00 1008.04 1008.16 1008.32 1008.44 1008.60 1008.68 1008.68 1008.60 1008.48 1008.48 1008.48 1008.52 1008.52 1008.56 1008.64 1008.68 1008.64 1008.64 1008.60 1008.56 1008.68 1008.60 1008.68 1008.80 1008.92 1009.04 1009.24 1009.20 1009.28 1009.44 1009.64 1009.80 1009.80 1009.80
1011.24 1011.16 1011.16 1011.00 1010.80 1010.52 1010.28 1009.92 1009.48 1009.08 1008.92 1008.76 1008.48 1008.28 1008.20 1008.16 1008.00 1007.96 1007.96 1007.76 1007.32 1007.12 1007.04 1007.12 1007.32 1007.36 1007.20 1007.00 1006.92 1006.84 1006.84 1007.00 1007.16 1007.24 1007.36 1007.52 1007.68 1007.80 1007.96 1008.12 1008.28 1008.36 1008.36 1008.56 1008.56 1008.60 1008.48 1008.32 1008.28 1008.28 1008.36 1008.44 1008.56 1008.56 1008.72 1008.96 1009.12 1009.00 1008.88 1008.80 1008.64 1008.68 1008.64 1008.64 1008.64 1008.80 1009.00 1009.24 1009.40 1009.64 1009.88 1010.00 1010.00 1010.08
1012.12 1012.08 1012.00 1011.84 1011.76 1011.56 1011.28 1011.00 1010.60 1010.16 1009.84 1009.60 1009.40 1009.20 1009.04 1009.04 1009.28 1009.28 1008.84 1008.72 1008.56 1008.40 1008.16 1007.92 1007.64 1007.40 1007.24 1007.16 1007.12 1007.00 1006.76 1006.84 1007.04 1007.20 1007.32 1007.48 1007.64 1007.84 1008.00 1008.12 1008.16 1008.36 1008.36 1008.36 1008.32 1008.12 1007.96 1008.16 1008.16 1008.20 1008.32 1008.40 1008.40 1008.68 1008.96 1008.96 1009.08 1009.12 1009.08 1008.96 1008.80 1008.80 1008.84 1008.88 1008.84 1008.84 1008.80 1009.00 1009.40 1009.80 1010.00 1010.20 1010.24 1010.08
1012.72 1012.72 1012.68 1012.60 1012.36 1012.20 1012.04 1011.88 1011.60 1011.32 1010.92 1010.56 1010.28 1010.08 1009.80 1009.64 1009.64 1009.52 1009.56 1009.64 1009.60 1009.36 1009.20 1009.00 1008.72 1008.36 1008.04 1007.76 1007.52 1007.40 1007.40 1007.36 1006.96 1006.96 1007.24 1007.36 1007.48 1007.60 1007.72 1007.80 1007.84 1007.84 1007.88 1007.76 1007.84 1007.96 1007.96 1008.04 1008.12 1008.24 1008.32 1008.36 1008.48 1008.56 1008.84 1008.92 1008.96 1008.96 1009.04 1009.04 1009.00 1008.88 1008.92 1009.00 1009.00 1009.00 1009.00 1008.96 1008.92 1008.88 1008.92 1009.04 1009.48 1009.92
1013.48 1013.44 1013.40 1013.28 1013.08 1012.92 1012.76 1012.60 1012.44 1012.24 1011.96 1011.56 1011.24 1010.96 1010.76 1010.68 1010.64 1010.72 1010.64 1010.52 1010.44 1010.28 1010.00 1009.72 1009.36 1009.04 1008.80 1008.48 1008.04 1007.68 1007.48 1007.56 1007.84 1007.32 1007.04 1007.20 1007.36 1007.48 1007.52 1007.64 1007.72 1007.80 1007.80 1007.76 1007.84 1007.92 1008.00 1008.08 1008.16 1008.24 1008.36 1008.48 1008.52 1008.68 1008.84 1008.96 1009.16 1009.08 1009.12 1009.20 1009.16 1009.08 1009.04 1008.92 1008.92 1009.00 1009.00 1008.96 1008.96 1008.96 1008.96 1008.92 1008.96 1009.08
1014.24 1014.24 1014.12 1014.00 1013.88 1013.72 1013.52 1013.32 1013.16 1013.00 1012.76 1012.52 1012.20 1012.00 1011.88 1011.72 1011.56 1011.44 1011.36 1011.24 1011.12 1010.88 1010.48 1010.20 1009.96 1009.72 1009.40 1009.00 1008.56 1008.16 1007.92 1007.68 1007.68 1007.52 1007.36 1007.28 1007.36 1007.40 1007.44 1007.44 1007.52 1007.68 1007.72 1007.80 1007.84 1007.88 1008.04 1008.12 1008.28 1008.36 1008.36 1008.28 1008.44 1008.56 1008.68 1008.84 1008.92 1009.16 1009.24 1009.24 1009.16 1009.20 1009.12 1009.12 1009.04 1008.96 1008.92 1008.88 1008.88 1009.00 1008.92 1008.96 1008.96 1009.00
Wind_Speed
12 12 14 13 12 11 10 10 11 10 11 9 8 9 10 10 10 11 10 8 7 7 9 8 5 9 8 8 7 7 8 10 11 8 9 9 8 11 15 16 16 16 16 16 16 16 16 17 17 18 19 19 19 19 19 19 19 18 17 17 17 17 16 15 16 16 16 16 16 16 16 16 16 16
11 13 13 12 12 10 10 10 10 11 12 10 11 10 10 10 12 10 12 11 7 7 5 8 5 5 7 7 6 7 8 11 12 9 8 8 9 13 15 15 15 15 15 15 15 16 16 16 16 17 17 18 18 18 18 18 18 18 17 17 17 16 15 15 16 16 16 16 16 16 17 17 16 15
10 13 15 12 12 11 11 10 10 9 12 11 12 11 10 11 11 13 12 11 8 7 9 7 6 5 7 6 6 6 7 7 11 9 8 8 12 14 11 14 14 14 14 15 14 15 15 15 16 16 16 17 17 17 18 18 18 17 17 16 16 15 14 15 15 16 16 16 16 16 17 17 16 15
11 12 13 14 13 11 10 10 13 10 11 11 11 11 12 12 11 10 12 13 14 7 8 6 5 7 6 5 6 6 5 5 10 8 8 9 10 8 7 12 14 14 14 13 13 14 14 15 15 16 16 16 17 17 17 17 17 16 16 16 16 15 15 15 16 16 16 16 16 16 17 16 16 15
11 12 13 15 13 11 13 11 11 11 11 10 10 10 11 12 11 11 12 13 14 10 7 7 6 5 5 5 7 6 5 4 5 7 7 6 6 6 8 7 9 12 12 13 13 13 13 14 15 15 16 16 16 16 15 15 15 16 16 16 16 15 15 15 15 16 15 15 16 16 17 16 16 15
12 12 16 16 15 11 14 14 13 13 14 12 12 12 11 11 11 11 12 13 13 14 7 9 7 5 5 7 4 6 6 6 4 5 5 5 7 8 7 6 7 9 11 11 12 12 13 13 14 14 14 15 15 15 15 16 16 16 16 15 15 15 14 15 15 15 16 16 16 17 16 16 16 15
14 14 16 16 15 10 15 16 15 15 16 14 14 13 11 12 12 12 14 12 13 14 12 9 9 9 7 9 9 6 6 6 5 6 5 5 5 6 7 6 6 7 10 11 12 12 12 12 13 13 14 14 14 15 15 15 15 16 16 15 15 15 15 16 16 16 16 16 16 16 16 16 16 16
14 15 16 15 15 15 16 15 12 12 13 13 13 13 12 12 13 12 12 14 12 11 13 10 11 9 8 6 6 5 5 6 5 5 4 3 4 3 4 5 5 7 11 12 12 12 12 12 13 13 14 14 14 14 14 14 14 14 15 15 16 16 17 17 17 17 17 16 16 17 17 17 17 16
14 14 15 16 16 13 13 13 13 12 14 12 12 13 12 11 12 11 12 12 12 12 14 10 8 7 8 7 5 6 6 4 4 3 5 5 4 4 4 4 5 8 10 11 11 12 13 13 13 13 13 13 13 13 13 13 13 13 14 15 15 16 16 16 16 16 16 16 17 17 17 17 17 17
14 13 14 12 13 15 16 15 14 15 17 14 13 15 12 12 12 14 12 11 11 13 14 12 10 7 9 7 5 5 6 6 5 4 4 3 4 5 4 5 4 4 6 6 7 10 11 12 13 12 12 12 12 11 11 11 12 12 13 13 14 14 15 15 15 15 15 16 17 17 17 16 16 16
13 13 11 12 15 17 16 16 15 13 13 13 15 15 14 12 12 14 13 14 14 13 13 11 11 10 8 8 9 5 4 5 5 6 4 5 4 4 5 6 4 4 6 8 10 9 9 9 8 9 10 11 11 11 11 11 12 12 12 12 13 13 14 14 14 14 15 15 15 15 15 14 14 15
11 11 12 14 14 12 14 16 13 13 13 11 13 13 12 12 13 14 14 14 13 13 14 13 11 10 10 8 7 2 5 6 5 6 6 7 6 6 4 5 5 3 4 5 5 6 6 7 8 8 9 10 11 12 10 11 12 12 12 12 12 12 13 14 14 14 14 14 13 13 13 13 14 15
12 14 13 14 15 14 17 18 17 16 15 12 13 13 12 13 13 13 12 13 13 12 11 12 10 10 10 10 9 9 8 10 9 6 8 7 6 3 4 5 5 6 5 4 6 7 7 7 6 6 6 8 9 9 10 10 11 12 11 11 11 12 13 14 14 13 13 13 13 13 13 14 14 14
13 13 14 15 20 21 20 20 20 20 20 20 16 12 12 14 13 13 13 13 13 13 12 12 10 11 12 11 11 12 12 7 4 4 7 8 6 3 7 7 6 5 6 7 8 8 7 7 7 6 8 7 7 6 6 7 8 9 11 11 11 12 12 12 13 13 13 13 13 13 14 14 14 14
13 12 14 13 16 19 21 20 21 21 23 22 21 20 19 18 16 14 14 13 13 12 13 12 11 11 12 11 10 11 9 6 7 7 7 6 5 7 7 8 2 4 8 7 7 8 6 6 9 8 7 7 6 6 7 6 7 10 9 10 11 12 12 12 12 12 12 12 12 13 13 13 12 12
11 12 12 12 12 14 18 18 19 21 23 23 23 22 20 20 22 20 17 15 14 14 13 12 12 12 12 11 11 9 9 7 8 7 8 8 9 8 8 7 7 2 7 6 5 7 5 6 8 8 8 6 6 6 6 6 8 8 8 7 9 9 10 10 10 10 11 11 11 10 10 11 11 12
11 11 12 12 13 12 19 18 17 17 18 21 25 24 23 22 22 23 23 21 17 14 14 13 13 12 12 12 11 11 10 6 8 8 8 9 9 10 9 9 5 4 6 5 5 6 5 6 7 9 7 6 6 6 7 8 7 7 6 6 7 8 9 9 8 9 8 8 8 9 9 10 12 13
7 10 12 12 11 11 14 15 17 17 19 16 16 19 20 17 21 22 25 23 23 18 14 14 14 13 12 12 12 10 8 9 8 9 10 10 9 9 11 8 6 2 7 6 5 6 7 6 7 8 6 5 5 5 6 8 8 7 6 6 6 7 8 7 8 9 9 8 9 10 10 11 12 12
9 10 9 9 9 11 12 13 15 16 16 16 16 16 19 18 17 18 17 19 14 15 11 13 14 12 12 13 10 7 8 10 10 9 8 9 9 6 1 1 2 3 7 8 7 8 4 5 7 7 6 5 4 4 5 7 6 5 5 5 5 6 6 7 8 9 9 10 11 10 11 12 12 13
9 9 8 8 10 9 10 14 19 19 15 16 18 16 15 17 17 17 18 19 18 16 13 13 13 11 12 11 10 9 8 7 6 4 3 3 4 6 7 7 6 7 6 9 10 7 4 4 7 5 4 4 5 4 4 5 6 5 4 4 5 5 5 7 7 7 7 8 8 8 10 11 12 12
10 10 11 8 8 9 9 14 16 18 20 14 15 15 13 15 14 14 14 19 21 19 19 19 17 14 12 13 13 13 14 10 8 6 6 8 8 8 8 7 7 8 6 7 10 7 5 5 4 3 2 4 5 5 3 3 4 6 5 5 6 7 6 6 8 7 6 5 8 8 9 11 11 10
7 9 18 16 11 12 12 16 15 10 13 12 13 14 12 10 12 13 11 9 13 21 20 18 14 12 13 14 14 15 15 14 11 9 10 8 9 9 9 9 8 6 6 7 9 6 5 4 4 3 2 1 1 2 3 3 3 5 4 5 6 6 7 7 7 8 8 7 7 8 9 9 10 7
5 7 10 16 15 14 15 21 19 20 9 9 11 11 12 10 12 13 14 14 14 12 10 9 9 8 9 9 8 9 14 15 14 10 9 7 10 9 9 8 6 5 7 8 11 9 5 5 5 5 3 3 2 2 3 3 3 3 3 3 2 3 4 5 7 7 8 8 8 8 9 10 10 5
7 7 8 11 17 19 20 19 21 20 22 7 3 3 4 7 12 11 14 14 14 13 13 12 11 11 8 6 7 7 7 9 11 10 8 8 10 10 10 10 9 7 2 4 13 9 4 5 6 7 5 4 4 3 2 3 3 3 3 3 2 2 4 4 3 4 5 6 7 8 8 9 10 5
7 7 8 7 14 17 18 18 19 19 20 17 9 7 2 1 3 5 8 11 14 12 14 13 11 10 9 8 8 7 8 8 8 8 8 8 8 8 10 9 8 5 2 3 10 6 3 4 5 6 3 0 2 4 3 3 3 3 3 3 3 3 3 3 3 3 3 4 5 7 8 11 11 8
6 7 7 7 11 13 15 16 17 18 17 17 10 10 8 8 7 4 5 7 9 7 7 9 9 9 10 9 8 7 8 8 7 8 8 7 7 6 6 7 7 6 4 4 8 6 6 4 7 8 5 5 3 4 4 3 3 4 3 3 3 4 4 3 3 2 2 3 3 5 7 11 12 10
6 5 5 6 11 12 13 13 14 15 15 12 12 17 16 12 8 5 4 7 7 8 8 8 9 10 10 9 9 8 9 8 6 5 8 8 8 6 5 4 4 5 3 7 8 8 6 5 6 10 9 7 5 5 4 5 4 4 4 4 4 3 3 3 3 3 3 3 3 6 7 8 10 9
4 6 5 6 11 11 12 12 10 11 12 10 15 15 16 15 11 6 7 4 6 9 8 8 7 7 7 7 7 5 5 6 8 7 7 8 7 7 5 5 5 3 5 8 8 8 8 7 6 6 6 7 7 6 5 3 2 5 5 4 4 4 4 4 4 3 2 3 3 4 4 4 4 4
3 5 10 12 10 9 8 8 10 9 11 14 14 15 15 12 8 8 7 8 8 6 8 8 6 6 5 6 6 5 5 4 4 5 3 2 4 3 2 3 3 4 2 2 6 7 6 7 6 7 5 6 5 4 4 4 5 5 6 6 4 5 6 6 5 5 4 3 3 4 5 6 6 6
7 8 8 9 9 8 7 5 4 4 5 9 10 12 12 7 8 8 8 8 9 7 7 9 8 5 4 5 6 6 6 5 3 3 4 4 4 7 7 5 3 3 3 2 2 5 5 4 5 7 7 5 3 5 5 4 4 4 6 5 3 3 5 6 6 5 5 4 3 3 3 3 5 7
6 6 4 5 7 6 7 6 4 4 4 4 5 6 6 6 6 7 7 7 7 6 7 9 8 6 6 6 7 6 6 5 4 2 5 4 2 2 2 4 3 4 3 3 3 5 3 1 1 6 7 4 2 2 3 2 4 4 5 5 6 3 3 6 5 6 5 4 4 3 3 2 3 5
8 7 6 6 3 3 3 3 2 2 2 3 3 4 4 5 6 7 8 7 6 5 6 6 7 8 8 8 6 6 6 6 5 4 5 3 3 4 3 4 2 3 2 2 4 1 4 5 5 5 4 7 5 3 2 3 3 4 5 5 5 3 3 5 5 5 6 6 4 4 4 4 4 5
6 6 6 6 7 6 6 5 5 5 5 4 3 4 4 4 5 5 4 6 6 6 6 7 7 7 6 6 6 6 7 7 6 5 4 4 5 4 3 2 3 3 2 3 2 1 1 3 4 3 0 2 2 5 6 3 4 3 4 4 4 4 4 4 5 5 6 6 5 4 5 5 5 5
4 5 6 6 6 6 6 6 6 6 5 4 4 3 2 3 3 3 3 4 5 5 5 5 6 5 5 5 5 6 6 5 5 5 5 3 3 4 3 4 3 4 4 3 3 1 3 3 4 3 3 4 3 2 3 3 4 5 5 5 5 5 5 5 5 7 7 5 5 5 4 5 5 5
4 6 6 6 6 6 5 4 5 4 4 4 4 3 2 3 3 3 3 3 3 4 4 5 5 5 5 5 5 5 4 4 4 5 4 4 4 5 5 6 4 4 5 3 2 3 3 4 5 4 3 2 3 4 5 3 3 2 3 3 4 4 4 4 5 6 7 5 4 5 5 4 4 5
6 5 5 6 6 6 6 5 4 3 3 3 3 2 4 4 3 3 4 2 3 4 4 5 5 5 5 4 4 4 4 4 4 4 5 5 4 4 5 5 5 4 2 3 4 3 4 4 2 4 4 2 2 2 1 6 5 2 4 3 2 3 3 4 5 6 7 6 6 5 5 4 4 4
6 6 5 5 6 7 6 6 5 4 4 4 3 3 3 4 4 3 3 3 4 4 4 4 4 4 4 4 4 4 3 4 3 4 4 4 4 4 5 4 3 4 5 3 3 3 2 4 4 4 4 4 3 3 2 0 6 7 1 2 2 1 3 3 4 5 5 5 6 6 5 4 4 3
8 8 7 7 8 7 7 7 7 6 6 5 5 5 4 4 4 4 3 4 4 3 3 3 3 3 3 4 4 2 3 3 3 3 3 3 3 4 4 4 3 4 4 4 3 3 3 4 4 3 3 3 3 3 3 1 1 3 5 0 2 3 2 4 4 4 3 4 4 5 5 4 4 2
9 9 9 9 9 9 9 9 8 8 8 8 7 6 5 5 4 3 3 3 3 3 3 3 2 2 2 1 1 2 2 2 2 1 2 1 2 3 3 3 3 2 3 4 3 2 2 3 2 3 4 4 3 2 1 2 2 1 4 5 0 3 4 5 5 4 4 4 3 3 2 3 4 7
9 9 9 9 9 9 9 9 9 9 8 9 9 9 8 8 7 7 6 6 5 4 1 1 1 2 2 2 2 2 2 2 2 2 2 2 1 1 2 3 5 5 4 3 3 1 2 4 4 5 5 5 3 2 2 2 2 2 2 5 6 2 2 4 4 6 5 4 4 5 4 1 3 0
9 9 10 9 9 9 9 9 8 8 8 8 8 9 9 8 9 9 9 8 7 6 5 4 4 5 4 2 2 4 4 2 2 2 3 3 3 3 2 3 3 4 5 5 4 4 5 5 3 2 2 3 3 3 3 3 1 1 3 4 5 7 2 2 2 4 3 5 5 5 5 3 2 1
8 8 8 9 9 9 9 10 10 10 9 9 9 8 8 8 8 10 9 10 8 8 7 7 6 3 2 2 3 3 5 5 5 4 4 4 4 4 4 4 4 4 4 5 6 6 3 1 1 3 3 3 3 2 1 3 3 2 1 2 2 3 3 4 4 3 3 8 6 4 3 2 1 1
8 8 8 8 8 8 9 9 10 10 9 9 9 9 8 9 8 11 9 9 8 7 7 6 6 6 6 5 5 6 6 4 0 3 4 4 5 5 5 5 5 5 6 5 2 1 2 2 2 3 3 2 1 2 2 2 1 1 1 1 1 1 1 1 2 3 4 3 3 1 1 3 3 2
9 9 9 9 8 9 9 9 9 9 10 9 9 9 10 9 10 9 9 9 9 9 8 7 7 8 8 7 6 1 2 1 5 2 1 1 2 2 2 3 4 4 4 2 2 3 2 2 2 3 4 3 2 2 2 1 1 1 0 1 1 1 1 1 2 1 0 3 6 7 7 6 2 3
9 9 8 9 9 9 9 9 9 9 9 9 9 10 9 9 9 8 8 8 8 9 9 9 8 8 9 9 8 8 7 5 1 3 2 1 1 0 1 1 2 2 3 2 2 3 4 3 2 1 2 3 3 4 3 4 3 2 1 1 1 0 1 1 0 1 2 2 2 2 4 6 7 7
Wind_Direction
228 229 227 223 224 222 220 225 229 229 229 230 230 227 226 225 239 250 249 237 243 234 208 230 214 204 213 220 216 216 220 225 222 221 222 224 226 227 226 230 233 236 238 240 241 242 243 245 246 246 247 246 246 245 244 244 243 241 239 238 239 238 240 241 243 243 241 237 231 228 227 228 229 231
228 230 232 228 227 219 216 221 222 229 233 230 226 226 228 226 232 237 246 254 222 246 205 216 220 188 218 218 217 213 221 224 219 221 218 222 224 226 224 226 229 233 236 238 240 241 242 243 244 245 245 245 245 244 244 244 243 243 243 241 239 237 236 239 242 240 239 237 233 229 227 226 225 225
226 227 231 227 228 221 221 221 223 225 231 230 229 229 228 227 224 233 236 252 241 208 236 224 222 200 204 211 211 214 222 218 217 221 221 221 225 224 226 226 227 229 231 234 236 238 240 242 244 244 245 245 245 244 243 242 244 245 244 242 241 239 237 238 239 237 235 235 233 230 228 227 223 222
229 224 225 227 226 220 218 221 224 221 225 227 228 225 229 231 226 229 236 236 253 212 236 234 209 219 211 200 206 214 221 221 211 219 217 224 226 224 228 225 224 226 230 235 238 240 240 241 242 243 243 244 244 243 242 241 242 242 240 238 237 236 234 234 234 234 233 232 232 229 227 226 223 220
229 227 225 229 226 216 221 219 221 221 220 220 226 227 228 230 227 224 231 238 248 250 226 241 229 200 207 226 211 216 218 225 218 219 225 222 218 226 235 235 227 227 230 233 237 240 242 242 241 241 242 242 243 243 243 243 243 243 242 243 242 240 238 235 234 234 233 231 230 228 225 222 221 219
232 228 233 233 228 217 222 221 221 221 224 222 224 225 223 225 227 219 227 233 241 254 228 239 231 228 188 237 182 205 206 226 222 222 221 226 227 233 232 235 240 223 228 228 231 234 238 240 240 240 240 239 240 240 241 244 246 246 246 246 245 245 242 239 236 233 231 229 227 226 223 219 219 217
238 232 231 231 226 217 224 223 222 221 222 220 221 223 219 224 224 221 221 229 238 246 247 237 242 232 224 227 235 218 225 229 209 217 216 215 222 226 231 236 242 227 229 233 234 236 237 238 238 237 236 237 237 239 241 242 243 244 244 242 240 238 237 236 235 233 230 228 227 225 220 217 218 216
245 238 236 231 224 218 220 219 217 217 217 218 219 221 220 221 223 220 222 224 231 242 252 235 237 233 231 232 235 219 220 214 203 210 212 206 222 219 220 230 236 235 234 236 238 239 238 237 238 237 237 238 238 239 240 241 242 244 245 243 240 236 233 232 231 230 228 227 226 224 220 217 216 213
246 242 237 233 227 218 218 217 218 214 215 215 216 221 219 217 220 221 219 223 224 235 242 245 233 232 231 235 220 204 207 203 213 202 216 215 220 228 229 233 236 249 247 243 242 242 240 239 238 239 239 238 237 236 237 238 240 242 243 243 241 239 236 233 231 230 227 224 224 222 219 217 214 213
244 241 238 230 230 228 225 223 220 219 220 216 216 220 218 214 215 219 218 216 220 230 240 240 243 222 232 231 225 200 202 198 202 217 221 224 225 234 242 235 235 233 246 248 242 242 243 240 236 235 238 239 241 242 244 244 243 244 246 247 245 243 240 236 233 230 227 224 222 221 218 215 215 213
248 243 241 242 232 229 228 226 224 220 219 218 218 218 216 211 210 218 219 216 220 226 235 237 235 240 230 228 238 213 205 207 206 208 208 236 211 218 224 252 237 227 244 247 245 248 246 241 235 231 234 242 245 244 246 249 248 247 245 245 245 244 242 239 235 232 228 227 225 223 219 214 212 211
249 237 231 233 237 231 229 230 222 219 222 217 220 215 211 209 209 214 217 216 217 223 230 235 233 229 235 227 237 152 186 206 227 218 207 228 224 221 214 228 246 224 226 244 246 242 239 239 235 236 239 241 243 245 248 248 248 247 244 238 237 236 235 234 233 232 230 227 224 221 217 214 212 211
251 244 234 231 229 225 228 224 223 221 217 217 219 216 207 209 207 209 212 216 215 220 225 230 228 230 227 228 222 211 203 207 212 195 203 228 241 239 252 237 221 233 231 234 247 245 226 226 230 227 238 241 238 246 240 249 246 243 240 238 235 232 230 230 229 229 228 224 219 216 213 212 211 209
252 247 242 237 228 227 226 224 223 223 222 220 220 213 204 206 205 207 208 210 214 218 221 224 219 221 227 223 219 221 216 207 198 166 185 219 230 230 252 267 236 201 214 235 242 245 228 220 231 222 235 246 235 243 236 237 237 230 224 228 231 232 231 227 226 224 222 220 216 213 211 209 209 208
250 248 245 240 236 231 230 230 225 225 225 222 221 217 207 203 204 206 206 208 209 214 221 221 214 218 225 221 214 218 214 191 191 199 197 212 215 230 240 257 301 187 201 219 239 255 221 204 231 229 228 236 235 232 238 238 230 231 223 219 224 228 228 227 226 223 221 217 214 212 209 208 206 199
254 251 247 241 235 233 230 230 230 228 228 225 221 220 216 209 205 204 202 205 208 211 219 218 215 214 219 221 213 213 207 198 201 201 202 210 216 223 226 235 242 177 183 202 224 254 229 207 226 236 232 226 229 234 232 220 232 233 232 223 222 226 231 232 229 225 220 216 213 209 203 202 196 186
250 250 249 248 238 235 231 233 232 233 230 223 223 219 220 218 211 209 208 204 205 206 214 218 217 211 211 217 217 208 202 173 193 195 208 216 218 222 226 227 221 192 178 189 224 250 239 203 218 232 232 219 226 235 225 224 229 230 224 211 210 215 219 219 214 217 216 209 201 200 193 189 188 186
272 250 245 242 239 235 234 232 233 234 232 227 217 218 222 221 218 214 209 208 209 207 211 213 219 215 207 215 215 204 176 170 189 192 211 210 213 216 223 218 218 167 167 197 221 251 247 208 218 229 225 204 217 231 232 220 227 229 213 203 196 199 202 190 188 192 194 178 189 189 178 180 187 183
2 357 341 317 285 263 248 239 234 235 234 231 226 211 212 215 215 214 214 212 208 210 210 213 218 217 207 218 212 182 180 192 199 193 194 190 201 208 227 298 227 209 200 210 206 245 243 195 214 233 230 205 216 224 224 217 223 218 209 193 184 190 188 166 177 195 185 172 186 184 166 171 177 187
1 1 353 338 328 314 289 260 239 234 234 234 228 210 200 205 208 212 210 208 210 209 211 216 218 217 213 209 203 184 180 189 184 156 127 123 168 193 210 230 226 231 210 202 209 228 232 190 212 232 214 185 216 204 210 188 190 184 193 191 182 187 188 157 174 204 197 168 180 179 162 169 181 190
358 359 8 4 343 325 332 323 290 241 224 219 215 205 193 196 199 207 205 203 203 207 209 214 216 211 200 192 190 185 183 185 174 159 179 205 184 198 217 230 228 232 207 202 210 216 235 198 202 208 148 198 217 216 177 144 168 161 168 178 174 176 178 171 164 181 210 196 168 176 170 169 180 187
346 344 0 21 13 4 351 349 354 308 224 212 208 207 193 185 190 199 196 189 202 204 207 209 205 190 187 184 187 187 184 175 166 177 199 191 183 206 213 223 220 226 217 207 191 205 223 159 164 151 120 160 256 175 146 139 123 132 143 165 172 174 172 173 170 174 185 200 201 181 177 173 161 165
327 352 358 11 14 17 8 13 14 9 340 221 220 200 196 192 193 193 185 185 188 189 194 196 177 181 179 178 176 187 185 178 184 192 198 169 188 202 207 213 207 222 232 211 177 200 191 160 167 156 144 207 200 141 152 135 143 150 154 152 145 144 161 166 171 177 184 189 196 199 185 165 162 165
349 360 4 10 13 18 17 17 18 19 13 10 62 155 161 175 194 178 180 182 180 178 183 185 190 193 174 169 180 178 182 189 196 198 192 179 188 198 202 206 204 211 175 164 180 198 173 173 160 191 197 186 205 175 149 151 152 156 159 148 158 142 144 132 138 180 185 193 193 191 182 161 167 164
344 3 5 7 8 17 18 16 22 19 22 19 23 21 57 16 74 138 170 170 171 175 181 183 185 192 181 183 187 191 184 184 193 199 196 189 189 193 201 199 198 208 151 183 188 188 149 166 166 174 185 243 152 150 160 150 152 166 174 180 166 162 170 177 158 150 133 161 182 178 166 162 180 175
345 353 356 4 359 8 19 17 21 20 20 23 32 12 8 75 107 150 175 165 165 154 166 167 173 176 175 176 180 169 181 189 190 194 196 195 194 198 195 182 176 197 193 169 150 141 116 169 193 178 175 166 164 161 153 192 173 168 168 192 201 180 187 178 169 153 162 167 159 175 170 172 182 192
330 331 345 352 350 4 15 15 20 20 20 24 24 18 11 21 56 98 155 173 168 171 166 169 171 173 171 170 171 170 187 195 195 202 198 197 200 201 201 199 189 193 143 149 170 167 166 163 182 189 190 190 149 169 173 171 177 151 160 185 194 180 191 182 189 186 170 162 155 122 134 167 185 190
325 325 337 332 337 357 9 4 17 27 21 25 21 23 11 14 27 49 69 84 163 164 159 161 162 160 157 154 160 173 182 189 178 200 198 196 194 209 210 197 207 171 143 160 175 184 183 171 171 196 186 178 173 173 182 183 142 164 174 168 186 183 183 187 201 189 168 156 144 151 150 150 181 179
312 296 298 312 331 336 349 356 17 18 21 22 16 15 10 8 35 29 45 58 57 77 112 110 107 119 122 146 150 148 146 169 136 147 150 179 191 169 126 92 76 57 82 150 172 187 192 178 175 172 182 191 179 185 174 164 178 178 180 160 196 201 186 189 189 194 184 172 170 172 178 166 165 180
280 283 298 305 319 331 333 343 17 15 13 20 21 16 13 19 31 36 36 47 57 52 59 82 83 75 74 72 90 101 100 107 126 103 123 134 161 163 157 148 117 80 81 103 195 200 206 191 166 168 178 191 193 174 184 139 171 171 164 195 192 144 185 189 195 194 182 184 178 177 194 182 179 172
320 311 305 304 298 295 305 318 326 344 10 33 24 21 15 17 36 46 45 49 55 41 53 62 62 64 69 64 66 68 78 73 48 74 124 122 136 105 52 111 122 96 44 58 157 189 181 328 252 164 161 156 125 178 173 156 162 170 188 197 186 198 178 177 183 191 187 170 172 174 176 192 190 189
313 310 313 311 305 308 330 326 346 30 34 32 47 52 34 21 32 56 63 60 62 54 40 48 58 50 44 49 57 66 65 61 45 47 71 90 106 107 144 119 119 123 95 47 47 354 185 185 184 239 189 158 173 169 116 168 186 183 190 190 204 210 118 175 192 192 173 161 163 188 198 203 210 201
312 325 333 345 352 2 354 354 3 6 19 33 27 45 49 43 32 29 40 61 62 54 49 49 53 57 61 50 38 58 58 44 36 23 65 78 107 80 42 57 123 108 80 48 77 188 146 179 176 188 80 49 62 149 151 167 223 201 194 182 191 208 212 180 180 181 161 168 193 197 202 203 208 212
309 332 338 348 346 345 350 360 4 1 358 9 29 42 42 59 66 48 38 62 77 76 71 71 70 72 64 56 45 46 53 51 40 31 54 63 85 91 89 91 58 79 81 64 17 356 79 93 108 74 67 76 52 89 175 161 183 206 209 198 191 212 217 203 192 169 171 187 185 189 209 213 209 205
9 355 358 351 348 344 340 359 355 352 358 1 3 18 70 74 77 75 64 62 78 83 83 76 80 77 75 64 53 56 47 52 49 52 44 57 67 91 108 99 77 52 65 46 20 352 54 110 120 109 79 64 78 50 41 33 192 166 175 197 208 210 210 197 178 171 180 191 181 195 205 216 214 201
14 5 358 355 352 347 350 349 338 344 357 359 3 354 35 41 48 76 80 70 67 79 82 83 84 77 71 71 58 49 39 45 54 54 54 54 63 73 76 85 94 73 71 70 46 32 63 43 86 130 145 124 126 155 136 23 33 154 151 167 163 186 190 190 194 188 193 194 196 197 208 213 223 200
15 7 359 1 359 357 354 345 348 358 352 345 358 33 28 42 27 47 60 70 70 67 64 75 84 100 93 81 79 74 62 50 57 58 64 51 62 73 89 84 81 89 83 44 8 18 64 88 70 100 120 129 140 136 69 337 14 6 79 148 159 208 158 162 166 187 198 192 187 198 196 201 225 210
21 15 8 8 8 359 360 356 355 4 10 7 3 8 7 37 49 44 41 59 63 60 63 68 55 44 76 111 109 92 75 80 69 64 60 60 70 80 100 114 104 82 77 48 33 33 58 76 68 60 89 126 151 154 139 67 88 18 19 39 166 169 165 155 164 179 154 172 187 192 208 209 216 197
23 17 15 9 8 5 7 1 2 8 7 13 20 22 20 21 8 16 44 61 71 79 46 28 38 75 87 64 66 101 100 80 82 71 66 78 105 127 126 126 121 85 77 68 42 43 69 100 115 119 133 141 154 200 172 111 42 65 20 28 46 144 174 177 164 173 160 159 165 163 160 48 66 59
23 23 19 13 5 3 5 2 10 11 12 13 19 17 18 24 27 30 28 22 10 10 33 309 153 145 142 154 131 99 99 131 148 151 159 155 167 160 153 156 155 148 121 128 124 181 162 160 164 166 170 173 185 179 149 101 2 46 21 27 14 23 181 166 162 162 163 167 152 164 166 30 209 123
30 29 23 15 11 11 9 8 5 11 16 13 20 27 28 23 27 23 24 19 18 24 24 29 8 328 334 312 190 173 171 165 152 158 164 160 178 191 175 150 152 158 155 172 179 176 197 196 198 166 95 90 100 110 94 73 81 336 355 353 13 0 330 275 151 162 135 150 151 157 165 166 165 193
30 29 24 21 18 13 11 11 6 11 13 12 16 19 24 35 43 31 32 23 19 17 13 14 8 7 355 302 285 232 179 172 175 172 174 156 164 182 179 179 181 171 179 182 193 198 193 109 47 83 106 120 110 85 138 148 170 190 256 330 354 3 338 303 304 329 136 148 145 138 125 105 136 202
27 24 21 17 17 15 15 11 11 11 9 10 12 11 17 24 20 23 20 18 12 14 9 359 1 8 10 7 10 9 352 336 208 156 155 169 172 173 181 190 194 184 192 197 150 108 135 133 111 117 109 80 50 116 189 199 219 57 96 124 88 13 56 334 295 305 316 305 346 342 155 162 146 177
23 21 22 18 15 16 16 17 16 17 13 12 11 17 22 22 24 21 18 14 15 8 359 357 357 7 4 1 3 36 184 5 319 317 146 132 160 172 180 176 163 176 198 169 145 158 138 152 144 143 150 164 141 122 184 138 193 253 13 21 321 351 40 37 106 75 4 279 272 274 279 273 303 18
32 28 23 21 19 18 17 16 18 16 18 15 15 19 19 20 20 17 19 16 13 6 8 5 4 1 2 2 4 6 351 342 301 293 330 50 70 59 241 203 170 177 206 158 149 170 159 158 143 155 213 154 153 178 167 175 189 168 202 224 183 342 1 10 48 121 91 94 70 33 265 246 253 260